FW9901 Weather Reports


time (UTC)temp
F
wind
direction
speed
knots
gust
knots
rain 1hr
in
rain 24hr
in
rain mn
in
humidity
%
barometer
mb
20260505201601 76 150 6.1 13.9 0.00 0.00 0.00 57 1017.1
20260505200059 76 151 0.9 13.9 0.00 0.00 0.00 55 1017.3
20260505194558 76 142 2.6 11.3 0.00 0.00 0.00 57 1017.3
20260505193057 76 126 2.6 9.6 0.00 0.00 0.00 55 1017.6
20260505191615 77 167 2.6 10.4 0.00 0.00 0.00 53 1017.8
20260505190057 76 0 1.7 12.2 0.00 0.00 0.00 50 1017.9
20260505184556 77 127 0.9 8.7 0.00 0.00 0.00 53 1018.1
20260505183059 77 164 3.5 10.4 0.00 0.00 0.00 53 1018.2
20260505181558 77 207 0.9 11.3 0.00 0.00 0.00 53 1018.1
20260505180106 76 143 2.6 11.3 0.00 0.00 0.00 55 1018.2
20260505174610 76 0 3.5 10.4 0.00 0.00 0.00 54 1018.3
20260505173057 77 147 0.9 13.9 0.00 0.00 0.00 55 1018.5
20260505171556 75 0 3.5 13.0 0.00 0.00 0.00 57 1018.5
20260505170059 75 158 4.3 11.3 0.00 0.00 0.00 56 1018.5
20260505164556 76 0 0.0 9.6 0.00 0.00 0.00 56 1018.7
20260505163059 75 153 1.7 7.8 0.00 0.00 0.00 60 1018.7
20260505161600 75 0 0.0 6.1 0.00 0.00 0.00 58 1018.9
20260505153057 74 172 0.0 6.1 0.00 0.00 0.00 62 1019.3
20260505151556 73 217 0.0 5.2 0.00 0.00 0.00 62 1019.2
20260505124557 66 0 0.0 0.0 0.00 0.00 0.00 79 1018.9
20260505123101 65 0 0.0 0.9 0.00 0.00 0.00 81 1018.7
20260505121557 64 0 0.0 0.0 0.00 0.00 0.00 84 1018.8
20260505120105 62 0 0.0 0.0 0.00 0.00 0.00 88 1018.8
20260505114600 60 0 0.0 0.0 0.00 0.00 0.00 87 1018.4
20260505113057 57 0 0.0 0.0 0.00 0.00 0.00 95 1018.6
20260505111557 54 0 0.0 0.0 0.00 0.00 0.00 95 1018.4
20260505101609 50 0 0.0 0.0 0.00 0.00 0.00 96 1017.7
20260505100106 50 0 0.0 0.0 0.00 0.00 0.00 96 1017.6
20260505094557 50 0 0.0 0.0 0.00 0.00 0.00 96 1017.4
20260505093106 50 0 0.0 0.0 0.00 0.00 0.00 95 1017.4
20260505091556 50 0 0.0 0.0 0.00 0.00 0.00 95 1017.3
20260505084605 51 0 0.0 0.0 0.00 0.00 0.00 95 1017.0
20260505083107 51 0 0.0 0.0 0.00 0.00 0.00 95 1016.9
20260505081623 51 0 0.0 0.0 0.00 0.00 0.00 94 1016.7
20260505080103 52 0 0.0 0.0 0.00 0.00 0.00 94 1016.9
20260505074555 52 0 0.0 0.0 0.00 0.00 0.00 93 1016.8
20260505073105 53 0 0.0 0.0 0.00 0.00 0.00 91 1017.0
20260505071559 53 0 0.0 0.0 0.00 0.00 0.00 91 1016.8
20260505070100 54 0 0.0 0.0 0.00 0.00 0.00 91 1016.7
20260505064601 53 0 0.0 0.0 0.00 0.00 0.00 92 1016.7
20260505063114 53 0 0.0 0.0 0.00 0.00 0.00 91 1017.0
20260505061559 52 0 0.0 0.0 0.00 0.00 0.00 91 1017.1
20260505060104 53 0 0.0 0.0 0.00 0.00 0.00 91 1017.2
20260505054602 54 0 0.0 0.0 0.00 0.00 0.00 90 1017.4
20260505053103 55 0 0.0 0.0 0.00 0.00 0.00 88 1017.4
20260505051600 55 0 0.0 0.0 0.00 0.00 0.00 87 1017.9
20260505041558 55 0 0.0 0.0 0.00 0.00 0.00 87 1017.7
20260505040104 56 0 0.0 0.0 0.00 0.00 0.00 86 1017.5
20260505034559 56 0 0.0 0.0 0.00 0.00 0.00 87 1017.7
20260505033058 57 0 0.0 0.0 0.00 0.00 0.00 85 1017.8
20260505031600 59 0 0.0 0.0 0.00 0.00 0.00 81 1018.0
20260505030106 59 0 0.0 0.0 0.00 0.00 0.00 78 1017.9
20260505024604 60 0 0.0 0.0 0.00 0.00 0.00 76 1017.9
20260505023104 62 0 0.0 0.0 0.00 0.00 0.00 73 1017.8
20260505021600 62 0 0.0 0.0 0.00 0.00 0.00 72 1017.8
20260505020058 62 0 0.0 0.0 0.00 0.00 0.00 72 1017.9
20260505014605 63 0 0.0 0.0 0.00 0.00 0.00 71 1017.8
20260505013059 64 0 0.0 0.0 0.00 0.00 0.00 69 1017.7
20260505011600 65 0 0.0 0.0 0.00 0.00 0.00 68 1017.6
20260505010117 65 0 0.0 0.0 0.00 0.00 0.00 67 1017.2
20260505004600 65 0 0.0 0.9 0.00 0.00 0.00 66 1017.1
20260505003101 66 0 0.0 0.0 0.00 0.00 0.00 64 1017.0
20260505001558 66 0 0.0 1.7 0.00 0.00 0.00 62 1017.0
20260505000056 67 0 0.0 5.2 0.00 0.00 0.00 60 1017.0
20260504234601 68 0 0.9 6.1 0.00 0.00 0.00 59 1016.6
20260504233057 69 155 0.0 7.8 0.00 0.00 0.00 58 1016.5
20260504231559 70 0 0.0 9.6 0.00 0.00 0.00 56 1016.4
20260504230058 71 0 3.5 12.2 0.00 0.00 0.00 55 1016.4
20260504224559 71 174 7.8 14.8 0.00 0.00 0.00 53 1016.5
20260504223103 71 153 7.8 15.6 0.00 0.00 0.00 51 1016.5
20260504221612 72 164 4.3 13.9 0.00 0.00 0.00 52 1016.3
20260504220059 72 156 3.5 12.2 0.00 0.00 0.00 52 1016.5
20260504214605 72 151 7.8 14.8 0.00 0.00 0.00 52 1016.5
20260504213113 73 134 7.8 14.8 0.00 0.00 0.00 52 1016.6
20260504211557 73 145 11.3 17.4 0.00 0.00 0.00 51 1016.5
20260504210105 73 139 7.0 14.8 0.00 0.00 0.00 52 1016.6
20260504204606 75 208 7.8 13.0 0.00 0.00 0.00 52 1016.7
20260504203058 75 150 4.3 15.6 0.00 0.00 0.00 53 1016.6